DW3478 Weather Reports


Display with metric or nautical units.
time (UTC)temp
F
wind
direction
speed
MPH
gust
MPH
rain 1hr
in
rain 24hr
in
rain mn
in
humidity
%
barometer
mb
20260510180304 61 283 3.0 9.0 0.00 0.03 0.03 74 1011.7
20260510175805 61 291 5.0 10.0 0.00 0.03 0.03 72 1011.7
20260510175306 62 283 2.0 9.0 0.00 0.03 0.03 73 1011.8
20260510174804 62 267 2.0 7.0 0.00 0.03 0.03 73 1011.7
20260510174304 62 263 2.0 5.0 0.00 0.03 0.03 72 1011.7
20260510173804 61 282 3.0 12.0 0.00 0.03 0.03 72 1011.6
20260510173304 61 298 6.0 12.0 0.00 0.03 0.03 70 1011.6
20260510172804 62 317 6.0 13.0 0.00 0.03 0.03 68 1011.6
20260510170804 62 291 7.0 12.0 0.00 0.03 0.03 63 1011.8
20260510165306 62 305 6.0 12.0 0.00 0.03 0.03 65 1011.7
20260510164804 63 278 5.0 12.0 0.00 0.03 0.03 65 1011.7
20260510164304 62 307 2.0 6.0 0.00 0.03 0.03 68 1011.7
20260510160304 62 323 3.0 9.0 0.00 0.03 0.03 66 1011.9
20260510155805 62 284 5.0 13.0 0.00 0.03 0.03 63 1011.9
20260510155306 62 290 5.0 12.0 0.00 0.03 0.03 62 1012.0
20260510154804 63 255 3.0 10.0 0.00 0.03 0.03 62 1012.0
20260510153304 64 311 9.0 12.0 0.00 0.03 0.03 60 1012.1
20260510152804 66 302 5.0 12.0 0.00 0.03 0.03 61 1012.1
20260510151304 65 300 6.0 13.0 0.00 0.03 0.03 61 1012.2
20260510150804 65 309 5.0 12.0 0.00 0.03 0.03 61 1012.2
20260510150304 64 287 9.0 14.0 0.00 0.03 0.03 59 1012.3
20260510145804 64 297 3.0 13.0 0.00 0.03 0.03 65 1012.2
20260510145306 62 323 7.0 13.0 0.00 0.03 0.03 66 1012.4
20260510141805 63 308 7.0 15.0 0.00 0.03 0.03 68 1012.5
20260510141306 64 318 7.0 15.0 0.00 0.03 0.03 67 1012.5
20260510140806 63 277 6.0 13.0 0.00 0.03 0.03 71 1012.4
20260510140305 61 293 6.0 12.0 0.00 0.03 0.03 71 1012.5
20260510135806 62 294 7.0 12.0 0.00 0.03 0.03 69 1012.5
20260510134805 63 290 8.0 12.0 0.00 0.03 0.03 66 1012.6
20260510133806 64 327 9.0 14.0 0.00 0.03 0.03 63 1012.6
20260510133305 63 306 9.0 13.0 0.00 0.03 0.03 64 1012.4
20260510132306 61 311 6.0 12.0 0.00 0.03 0.03 69 1012.7
20260510131806 63 315 7.0 12.0 0.00 0.03 0.03 65 1012.4
20260510131306 64 306 7.0 12.0 0.00 0.03 0.03 67 1012.6
20260510125805 62 265 5.0 8.0 0.00 0.03 0.03 72 1012.6
20260510125307 63 236 4.0 9.0 0.00 0.03 0.03 70 1012.7
20260510124805 62 264 5.0 7.0 0.00 0.03 0.03 71 1012.7
20260510124306 62 230 3.0 10.0 0.00 0.03 0.03 70 1012.8
20260510123805 63 227 5.0 7.0 0.00 0.03 0.03 71 1012.9
20260510123305 64 280 3.0 7.0 0.00 0.03 0.03 68 1012.9
20260510120306 63 250 4.0 10.0 0.00 0.03 0.03 70 1012.9
20260510113806 63 291 3.0 7.0 0.00 0.03 0.03 75 1012.9
20260510112306 62 287 3.0 9.0 0.00 0.03 0.03 77 1012.9
20260510111305 62 340 2.0 9.0 0.00 0.03 0.03 73 1012.9
20260510110806 61 260 2.0 7.0 0.00 0.03 0.03 75 1012.8
20260510105805 62 281 2.0 6.0 0.00 0.03 0.03 78 1013.1
20260510104805 61 299 2.0 3.0 0.01 0.03 0.03 81 1012.9
20260510103305 59 330 0.0 2.0 0.03 0.03 0.03 86 1012.9
20260510102806 58 257 1.0 3.0 0.03 0.03 0.03 85 1012.8
20260510102306 58 5 0.0 2.0 0.03 0.03 0.03 86 1012.8
20260510100805 56 26 2.0 3.0 0.03 0.03 0.03 89 1012.8
20260510095805 57 338 1.0 3.0 0.03 0.03 0.03 84 1012.8
20260510094305 58 297 3.0 7.0 0.02 0.02 0.02 80 1012.7
20260510093805 58 327 3.0 13.0 0.01 0.01 0.01 78 1012.7
20260510092805 59 291 2.0 6.0 0.00 0.00 0.00 73 1012.5
20260510091305 60 312 2.0 3.0 0.00 0.00 0.00 74 1012.5
20260510090805 59 294 2.0 5.0 0.00 0.00 0.00 75 1012.5
20260510082805 58 328 2.0 3.0 0.00 0.00 0.00 74 1012.3
20260510081305 57 304 2.0 6.0 0.00 0.00 0.00 75 1012.2
20260510080806 57 317 2.0 6.0 0.00 0.00 0.00 76 1012.2
20260510080305 56 275 1.0 6.0 0.00 0.00 0.00 77 1012.1
20260510075805 56 311 2.0 6.0 0.00 0.00 0.00 77 1012.1
20260510075306 56 293 1.0 3.0 0.00 0.00 0.00 77 1012.1
20260510074805 56 294 1.0 5.0 0.00 0.00 0.00 78 1012.0
20260510074305 56 316 1.0 3.0 0.00 0.00 0.00 77 1011.8
20260510073805 57 290 2.0 5.0 0.00 0.00 0.00 76 1012.1
20260510073306 57 312 1.0 5.0 0.00 0.00 0.00 76 1012.0
20260510072805 56 331 1.0 3.0 0.00 0.00 0.00 77 1012.0
20260510072306 56 283 1.0 3.0 0.00 0.00 0.00 79 1011.9
20260510070805 55 294 1.0 3.0 0.00 0.00 0.00 80 1011.7
20260510070305 55 324 1.0 5.0 0.00 0.00 0.00 80 1011.8
20260510065805 55 333 0.0 3.0 0.00 0.00 0.00 80 1011.7
20260510063806 54 298 1.0 2.0 0.00 0.00 0.00 79 1011.7
20260510061805 54 357 1.0 3.0 0.00 0.00 0.00 79 1011.5
20260510061305 54 312 1.0 3.0 0.00 0.00 0.00 80 1011.3
20260510054304 54 306 3.0 5.0 0.00 0.00 0.00 83 1010.9
20260510051805 54 302 1.0 5.0 0.00 0.00 0.00 84 1011.0
20260510051305 54 338 2.0 5.0 0.00 0.00 0.00 83 1011.0
20260510050804 54 295 1.0 6.0 0.00 0.00 0.00 83 1010.9
20260510050305 54 277 1.0 5.0 0.00 0.00 0.00 83 1010.8
20260510045804 54 333 1.0 6.0 0.00 0.00 0.00 83 1010.9
20260510045306 54 313 1.0 3.0 0.00 0.00 0.00 83 1010.9
20260510044304 54 214 1.0 6.0 0.00 0.00 0.00 82 1010.9
20260510043805 54 327 1.0 3.0 0.00 0.00 0.00 82 1011.0
20260510042805 54 356 2.0 6.0 0.00 0.00 0.00 82 1010.9
20260510042307 54 310 2.0 5.0 0.00 0.00 0.00 82 1010.8
20260510041805 55 339 1.0 5.0 0.00 0.00 0.00 81 1010.9
20260510034805 54 286 2.0 5.0 0.00 0.00 0.00 80 1010.9
20260510034305 54 335 2.0 6.0 0.00 0.00 0.00 80 1010.7
20260510033305 54 328 1.0 3.0 0.00 0.00 0.00 79 1010.8
20260510032805 54 322 2.0 6.0 0.00 0.00 0.00 79 1010.7
20260510032306 54 324 2.0 10.0 0.00 0.00 0.00 79 1010.7
20260510031805 54 317 2.0 6.0 0.00 0.00 0.00 79 1010.8
20260510031305 54 324 2.0 7.0 0.00 0.00 0.00 79 1010.8
20260510023305 54 293 2.0 10.0 0.00 0.01 0.00 79 1011.0
20260510021805 54 324 1.0 9.0 0.00 0.01 0.00 80 1011.0
20260510020805 54 298 2.0 6.0 0.00 0.02 0.00 81 1011.1
20260510015805 54 23 1.0 3.0 0.00 0.02 0.00 82 1011.1
20260510015306 54 319 3.0 9.0 0.00 0.02 0.00 82 1011.1
20260510014305 54 337 2.0 5.0 0.00 0.02 0.00 82 1011.2
20260510011805 54 340 1.0 5.0 0.00 0.02 0.00 82 1011.1
20260510010804 54 315 1.0 5.0 0.00 0.02 0.00 82 1011.3
20260510010305 54 0 2.0 5.0 0.00 0.02 0.00 82 1011.3
20260510005306 55 289 1.0 5.0 0.00 0.02 0.00 82 1011.2
20260510004804 55 303 2.0 5.0 0.00 0.02 0.00 82 1011.3
20260510003805 55 348 2.0 7.0 0.00 0.02 0.00 82 1011.2
20260510002804 56 350 2.0 7.0 0.00 0.02 0.00 82 1011.3
20260510002306 56 344 2.0 6.0 0.00 0.02 0.00 82 1011.4
20260510001805 56 308 2.0 6.0 0.00 0.02 0.00 82 1011.5
20260509235805 56 325 2.0 9.0 0.00 0.02 0.00 80 1011.4
20260509231805 56 287 1.0 3.0 0.00 0.05 0.00 81 1011.3
20260509225805 56 332 2.0 6.0 0.00 0.05 0.05 81 1011.3
20260509225306 57 322 2.0 6.0 0.00 0.05 0.05 81 1011.2
20260509222804 57 309 3.0 7.0 0.00 0.05 0.05 79 1011.4
20260509222307 57 339 2.0 6.0 0.00 0.05 0.05 80 1011.4
20260509220804 57 319 2.0 5.0 0.00 0.05 0.05 78 1011.5
20260509220304 57 319 2.0 5.0 0.00 0.05 0.05 79 1011.4
20260509215804 57 324 2.0 5.0 0.00 0.05 0.05 79 1011.4
20260509205805 57 321 1.0 6.0 0.00 0.05 0.05 80 1010.9
20260509205307 57 330 2.0 6.0 0.00 0.05 0.05 81 1010.9
20260509204804 57 316 2.0 3.0 0.00 0.05 0.05 81 1010.6
20260509204304 57 310 1.0 6.0 0.00 0.05 0.05 81 1010.7
20260509203805 57 333 2.0 7.0 0.00 0.05 0.05 81 1010.3
20260509203304 57 326 2.0 6.0 0.00 0.05 0.05 82 1010.6
20260509202306 58 311 3.0 10.0 0.00 0.05 0.05 82 1010.5
20260509201805 58 305 3.0 9.0 0.00 0.05 0.05 82 1010.6
20260509201305 58 302 2.0 10.0 0.00 0.05 0.05 82 1010.5
20260509200304 58 301 2.0 5.0 0.00 0.05 0.05 81 1010.6
20260509195805 58 320 2.0 7.0 0.00 0.05 0.05 81 1010.6
20260509195306 58 323 2.0 6.0 0.00 0.05 0.05 80 1010.6
20260509194805 58 297 3.0 9.0 0.00 0.05 0.05 80 1010.6
20260509185306 60 297 2.0 7.0 0.00 0.05 0.05 78 1010.2
20260509184804 60 283 3.0 7.0 0.00 0.05 0.05 78 1009.9
20260509184304 60 317 3.0 7.0 0.00 0.05 0.05 79 1009.8
20260509182805 60 318 3.0 5.0 0.00 0.05 0.05 80 1009.9
20260509182306 60 299 2.0 6.0 0.00 0.05 0.05 81 1009.9
20260509181805 60 307 3.0 12.0 0.00 0.05 0.05 82 1010.0
20260509180805 60 310 3.0 10.0 0.00 0.09 0.05 87 1010.0